Regional Weather Roundup
Issued by NWS

Home | Current Version | Previous Version | Text Only | Print | Product List | Glossary On
Versions: 1 2 3 4 5 6 7 8 9 10 11 12 13 14 15 16 17 18 19 20 21 22 23 24 25 26 27 28 29 30 31 32 33 34 35 36 37 38 39 40 41 42 43 44 45 46 47 48 49 50
088
ASUS44 KOUN 271710
RWROK

WEATHER ROUNDUP FOR OKLAHOMA
NATIONAL WEATHER SERVICE NORMAN OK
1200 PM CDT WED JUL 27 2016

NOTE: "FAIR" INDICATES FEW OR NO CLOUDS BELOW 12,000 FEET WITH NO
      SIGNIFICANT WEATHER AND/OR OBSTRUCTIONS TO VISIBILITY.

OKZ001>007-009>012-014-015-017-271800-
NORTHWEST OKLAHOMA AND THE PANHANDLE

CITY           SKY/WX    TMP DP  RH WIND       PRES   REMARKS
GAGE           SUNNY     91  68  46 S9        30.03F HX  95
GUYMON         SUNNY     88  65  46 SE9       30.06F HX  90
$$

OKZ016-021>023-033>039-044-045-271800-
SOUTHWEST OKLAHOMA

CITY           SKY/WX    TMP DP  RH WIND       PRES   REMARKS
LAWTON/REGL    SUNNY     93  69  45 CALM      29.99S HX  98
LAWTON/FT SILL SUNNY     91  73  54 VRB1      29.98S HX  98
FREDERICK      SUNNY     92  70  48 CALM      29.97S HX  97
CLINTON        PTSUNNY   89  68  49 CALM      30.05S HX  93
HOBART         MOSUNNY   90  69  50 CALM      30.02R HX  94
ALTUS AFB      SUNNY     89  71  54 VRB2      30.00R HX  94
$$

OKZ018>020-024>031-271800-
CENTRAL OKLAHOMA

CITY           SKY/WX    TMP DP  RH WIND       PRES   REMARKS
OKLAHOMA CITY  MOSUNNY   91  74  57 CALM      30.01S HX 100
OKC/WILEY POST MOSUNNY   88  72  58 MISG      30.00S HX  94
OKC/TINKER AFB MOSUNNY   86  70  58 SW7       30.00R HX  91
STILLWATER     CLOUDY    77  73  87 S5        29.99S
GUTHRIE        CLOUDY    83  73  72 E10       29.99S
$$

OKZ008-013-054>072-271800-
NORTHEAST OKLAHOMA

CITY           SKY/WX    TMP DP  RH WIND       PRES   REMARKS
TULSA          PTSUNNY   87  75  67 CALM      29.95F HX  96
TULSA/JONES    MOSUNNY   87  75  67 S7        29.97F HX  96
PONCA CITY     SUNNY     87  73  62 SE6       29.97R HX  94
BARTLESVILLE   MOSUNNY   84  73  69 CALM      29.99R HX  90
MUSKOGEE       CLOUDY    83  75  77 SE3       29.99F HX  90
$$

OKZ032-040>043-046>053-073>077-271800-
SOUTH CENTRAL/SOUTHEAST OKLAHOMA

CITY           SKY/WX    TMP DP  RH WIND       PRES   REMARKS
ARDMORE/DWNTWN SUNNY     90  68  48 N3        29.97S HX  93
MCALESTER      PTSUNNY   84  76  76 SW6       29.99S HX  93
$$





USA.gov is the U.S. government's official web portal to all federal, state and local government web resources and services.